Regional Weather Roundup
Issued by NWS

Home | Current Version | Previous Version | Text Only | Print | Product List | Glossary Off
Versions: 1 2 3 4 5 6 7 8 9 10 11 12 13 14 15 16 17 18 19 20 21 22 23 24 25 26 27 28 29 30 31 32 33 34 35 36 37 38 39 40 41 42 43 44 45 46 47 48 49 50

000
ASUS43 KDTX 302201
RWRMI
MICHIGAN HOURLY REGIONAL WEATHER ROUNDUP
NATIONAL WEATHER SERVICE DETROIT/PONTIAC MI
600 PM EDT WED JUL 30 2014

NOTE: "FAIR" INDICATES FEW OR NO CLOUDS BELOW 12,000 FEET WITH NO
SIGNIFICANT WEATHER AND/OR OBSTRUCTION TO VISIBILITY.

MIZ047>049-052>055-059>063-066>070-074>076-081>083-302300-
SOUTHEAST LOWER MICHIGAN

CITY           SKY/WX    TMP DP  RH WIND       PRES   REMARKS
ADRIAN         MOSUNNY   74  58  57 NW6       29.98S
ALMA           SUNNY     75  46  35 NW7       29.96S
ANN ARBOR      MOSUNNY   74  52  46 W10       29.97S
BAD AXE        PTSUNNY   71  51  49 SW6       29.97S
CARO           SUNNY     75  51  42 W7        29.96S
DETROIT CITY   MOSUNNY   76  53  44 NW5       29.96F
DETROIT        PTSUNNY   76  55  48 W8        29.96F
FLINT          PTSUNNY   73  56  54 S3        29.98S
GROSSE ILE     MOSUNNY   73  61  64 E6        29.95S
HILLSDALE      PTSUNNY   70  57  63 N5        30.00R
HOWELL         PTSUNNY   66  53  61 CALM      29.99S

CITY           SKY/WX    TMP DP  RH WIND       PRES   REMARKS
JACKSON        MOSUNNY   74  57  55 W9        29.98S
LAMBERTVILLE   SUNNY     77  55  47 W6        29.96F
LANSING        CLOUDY    66  58  75 W6        29.99R
LAPEER         MOCLDY    72  46  39 W7        29.98S
MASON          PTSUNNY   69  54  59 NW18G30   30.00R
MONROE         SUNNY     77  55  47 W8        29.94F
MT. CLEMENS    PTSUNNY   69  58  67 S9        29.95S
PONTIAC        TSTM      62  56  80 W8        29.99R
PORT HOPE        N/A     64  55  72 E6        29.97S
PORT HURON     MOSUNNY   70  57  64 NE8       29.97S
TRI CITIES     MOSUNNY   75  48  38 W6        29.96F
TROY           MOSUNNY   72  55  54 NW5       29.98R
SAGINAW HB     MOSUNNY   75  45  33 W9        29.96S
$$
MIZ043>046-050>051-056>058-064>065-071>073-077>080-302300-
SOUTHWEST LOWER MICHIGAN

CITY           SKY/WX    TMP DP  RH WIND       PRES   REMARKS
BATTLE CREEK   MOSUNNY   74  56  53 W17       30.00S
BENTON HARBOR  SUNNY     65  58  78 VRB5      30.02F
BIG RAPIDS     SUNNY     73  46  37 W9G22     29.97S
COLDWATER      MOSUNNY   77  57  49 W10       29.99S
FREMONT        FAIR      72  42  34 NW9       30.00S
HOLLAND        SUNNY     68  56  65 W7        30.03S
GRAND RAPIDS   MOSUNNY   75  53  46 W18       29.99F
IONIA          FAIR      73  55  53 W13       29.97S
KALAMAZOO      MOSUNNY   74  56  53 W12       30.00F
LUDINGTON      SUNNY     69  51  51 N7        30.02S
MARSHALL       MOSUNNY   73  57  57 W15       29.98S
MOUNT PLEASANT MOSUNNY   75  47  36 W6        29.96S
MUSKEGON       MOSUNNY   71  46  40 W12       30.01S
SOUTH HAVEN    PTSUNNY   64  60  88 W7        30.03F
$$
MIZ016>042-302300-
NORTHERN LOWER MICHIGAN

CITY           SKY/WX    TMP DP  RH WIND       PRES   REMARKS
ALPENA         CLOUDY    62  54  74 SE6       29.97R
BEAVER ISLAND  PTSUNNY   63  55  75 SW6       29.99S
BELLAIRE       PTSUNNY   67  47  48 NW5       29.98S
CADILLAC       SUNNY     70  51  52 W9        29.99R
CHARLEVOIX     PTSUNNY   64  52  63 W9        30.02S
FRANKFORT      SUNNY     67  50  53 W7        30.00F
GAYLORD        PTSUNNY   65  48  54 NW9       29.99R
GRAYLING       MOSUNNY   69  49  48 NW10      29.99R
HARBOR SPRINGS PTSUNNY   63  54  70 SW3       29.99R
HOUGHTON LAKE  PTSUNNY   72  51  47 W10       29.97S
MANISTEE       SUNNY     64  48  55 NW8       30.02S
OSCODA         LGT RAIN  63  56  80 E7        29.96F
PELLSTON       PTSUNNY   66  51  58 NW7       29.98S
ROGERS CITY    PTSUNNY   64  54  70 N5        29.98S
TRAVERSE CITY  MOSUNNY   70  49  47 NW10      29.98R
$$
MIZ007>008-015-302300-
EASTERN UPPER MICHIGAN

CITY           SKY/WX    TMP DP  RH WIND       PRES   REMARKS
KINROSS        CLOUDY    57  54  88 N10       29.99R
MACKINAC ISLAN CLOUDY    60  57  89 W6        29.98F
NEWBERRY       CLOUDY    58  52  79 NW5       29.97F
S. S. MARIE    LGT RAIN  57  50  77 NW9       29.98S
$$
MIZ004>006-011>014-085-302300-
CENTRAL UPPER MICHIGAN

CITY           SKY/WX    TMP DP  RH WIND       PRES   REMARKS
MANISTIQUE     LGT RAIN  60  55  85 CALM      29.99R
ESCANABA       MOSUNNY   66  50  55 S10G18    29.96F
MENOMINEE      MOSUNNY   70  54  56 SW8       29.96F
SAWYER-GWINN   CLOUDY    55  52  88 E12       30.00R
$$
MIZ001>003-009>011-084-302300-
WESTERN UPPER MICHIGAN

CITY           SKY/WX    TMP DP  RH WIND       PRES   REMARKS
IRON MOUNTAIN  PTSUNNY   72  45  37 NW6       29.95F
HOUGHTON       PTSUNNY   62  54  74 W13       29.95F
COPPER HARBOR    N/A     67  54  63 NW7       29.94F
$$

ABBREVIATIONS USED IN REMARKS
   TC - TEMPERATURE IN CELSIUS
  WCI - WIND CHILL INDEX
   HX - HEAT INDEX
  VSB - VISIBILITY




USA.gov is the U.S. government's official web portal to all federal, state and local government web resources and services.